Location: Unspecified
(0.0000°N, 0.0000°E)
Time: 12:53:05
(UTC+00:00)

COSMOS 2508 - Pass Details

Date: 01 October 2020
Orbit: 1484 x 1504 km, 82.5° (Epoch: 26 October)

Event Time Altitude Azimuth Distance (km) Brightness Sun altitude
Rises 18:57:38 0° 186° (S) 4,622 ? -17.0°
Reaches altitude 10° 19:00:30 10° 187° (S) 3,643 ? -17.7°
Maximum altitude 19:09:17 81° 272° (W) 1,517 ? -19.9°
Drops below altitude 10° 19:18:04 10° 360° (N) 3,646 ? -22.1°
Sets 19:20:58 0° 1° (N) 4,626 ? -22.8°
